Regional Weather Roundup
Issued by NWS

Home | Current Version | Previous Version | Text Only | Print | Product List | Glossary Off
Versions: 1 2 3 4 5 6 7 8 9 10 11 12 13 14 15 16 17 18 19 20 21 22 23 24 25 26 27 28 29 30 31 32 33 34 35 36 37 38 39 40 41 42 43 44 45 46 47 48 49 50

000
ASUS45 KCYS 250910
RWRWY

WYOMING REGIONAL WEATHER ROUNDUP
NATIONAL WEATHER SERVICE CHEYENNE WY
200 AM MST TUE NOV 25 2014

NOTE:  "FAIR" INDICATES FEW OR NO CLOUDS BELOW 12,000 FEET
WITH NO SIGNIFICANT WEATHER AND/OR OBSTRUCTIONS TO VISIBILITY.

WYZ001-251000-
YELLOWSTONE NATIONAL PARK

CITY           SKY/WX    TMP DP  RH WIND       PRES   REMARKS
LK YELLOWSTONE   N/A     19  15  84 VRB6G16   30.10F WCI  11
W YELLOWSTONE  NOT AVBL

$$
WYZ002>013-054>058-071-098>099-251000-
NORTHERN WYOMING

CITY           SKY/WX    TMP DP  RH WIND       PRES   REMARKS
JACKSON        CLOUDY    25  21  86 S13       30.18F WCI  13
CODY           CLOUDY    36  18  48 SW28G45   29.95R WCI  23
GREYBULL       CLOUDY    23  17  78 CALM      30.01F
WORLAND        CLOUDY    19  13  77 SW5       30.00F WCI  12
SHERIDAN       CLOUDY    29  18  63 S5        29.89F WCI  24
BUFFALO        CLOUDY    26   9  48 SW6       29.91F WCI  19
GILLETTE       CLOUDY    28  16  60 SW12      29.93F WCI  18
HULETT         PTSUNNY   30  21  69 SW10      29.95F WCI  21
NEWCASTLE      FAIR      18  18 100 CALM      30.02F

$$
WYZ014>020-022>026-101>103-251000-
CENTRAL WYOMING

CITY           SKY/WX    TMP DP  RH WIND       PRES   REMARKS
BIG PINEY      CLOUDY    18   9  68 CALM      30.21F
PINEDALE       CLOUDY    18  14  86 W5        30.21F WCI  11
DUBOIS         CLOUDY    25  14  63 NW31G40   30.03F WCI   8
LANDER         CLOUDY    23   7  50 NW9       30.00F WCI  13
RIVERTON       CLOUDY    28  12  51 W14       30.03F WCI  17
CASPER         CLOUDY    25   9  50 SW21G29   30.02F WCI  11
DOUGLAS        PTCLDY   N/A N/A N/A CALM      30.04F

$$
WYZ021-027>030-104>119-251000-
SOUTHERN WYOMING

CITY           SKY/WX    TMP DP  RH WIND       PRES   REMARKS
EVANSTON       MOCLDY    21  12  68 SW18      30.28F WCI   6
FORT BRIDGER   FAIR      24  11  59 W20       30.29F WCI   9
ROCK SPRINGS   CLOUDY    23  10  57 SW16G29   30.22F WCI  10
DIXON          CLOUDY    14  10  83 CALM      30.28F
RAWLINS        CLOUDY    20  11  68 SW17G29   30.14F WCI   5
SARATOGA       PTSUNNY   23  12  63 SW10G24   30.19F WCI  12
LARAMIE        PTCLDY    19   7  59 W10G22    30.09F WCI   7
CHEYENNE       CLEAR     24   8  50 W17       30.07F WCI  11
TORRINGTON     PTCLDY    22  14  71 W6        30.08F WCI  14
PINE BLUFFS    FAIR      18  10  73 W9        30.12F WCI   6

$$



USA.gov is the U.S. government's official web portal to all federal, state and local government web resources and services.